Fallon NAS, NV

1:04 AM PDT on March 25, 2017 (GMT -0700)
Fallon Naval Air Station

Weather History for KNFL - April, 2014

Change the Weather History Date:

Saturday, April 12, 2014

  Actual Average Record
Temperature  
Mean Temperature 62 °F -  
Max Temperature 79 °F 63 °F 85 °F (1934)
Min Temperature 46 °F 32 °F 21 °F (1970)
Degree Days  
Heating Degree Days 2    
Growing Degree Days 12 (Base 50)    
Moisture  
Dew Point 28 °F    
Average Humidity 29    
Maximum Humidity 52    
Minimum Humidity 10    
Precipitation  
Precipitation 0.00 in - - ()
Sea Level Pressure  
Sea Level Pressure 29.76 in    
Wind  
Wind Speed 7 mph (WNW)    
Max Wind Speed 22 mph    
Max Gust Speed 29 mph    
Visibility 10 miles    
Events      
Averages and records for this station are not official NWS values.
T = Trace of Precipitation, MM = Missing Value Source: NWS Daily Summary

Daily Weather History Graph

Daily Weather History Graph

Search for Another Location

Airport or City:

Trip Planner

Search our weather history database for the weather conditions in past years. The results will help you decide how hot, cold, wet, or windy it might be!

Date:

Astronomy

Apr. 12, 2014 Rise Set
Actual Time 6:22 AM PDT 7:29 PM PDT
Civil Twilight 5:54 AM PDT 7:57 PM PDT
Nautical Twilight 5:21 AM PDT 8:30 PM PDT
Astronomical Twilight 4:47 AM PDT 9:04 PM PDT
Moon 5:13 PM PDT (4/12) 4:50 AM PDT (4/12)
Length of Visible Light 14h 02m
Length of Day
13h 07m
Waxing Gibbous, 93% of the Moon is Illuminated
Apr 12
Waxing Gibbous
Apr 15
Full
Apr 22
Last Quarter
Apr 28
New
May 6
First Quarter

Hourly Weather History & Observations

Time (PDT) Temp. Dew Point Humidity Pressure Visibility Wind Dir Wind Speed Gust Speed Precip Events Conditions
12:56 AM 54.0 °F 30.0 °F 40% 29.78 in 10.0 mi South 3.5 mph - N/A   Clear
1:56 AM 54.0 °F 30.9 °F 41% 29.78 in 10.0 mi SW 4.6 mph - N/A   Clear
2:56 AM 50.0 °F 30.0 °F 46% 29.77 in 10.0 mi South 5.8 mph - N/A   Clear
3:56 AM 50.0 °F 30.9 °F 48% 29.77 in 10.0 mi West 10.4 mph - N/A   Clear
4:56 AM 48.9 °F 30.9 °F 50% 29.78 in 10.0 mi North 3.5 mph - N/A   Clear
5:56 AM 48.9 °F 32.0 °F 52% 29.78 in 10.0 mi North 4.6 mph - N/A   Clear
6:56 AM 46.9 °F 30.0 °F 52% 29.79 in 10.0 mi Calm Calm - N/A   Clear
7:56 AM 55.9 °F 33.1 °F 42% 29.80 in 10.0 mi Calm Calm - N/A   Clear
8:56 AM 61.0 °F 33.1 °F 35% 29.81 in 10.0 mi Calm Calm - N/A   Clear
9:01 AM 61.0 °F 33.1 °F 35% 29.87 in 10.0 mi Calm Calm - N/A   Scattered Clouds
9:56 AM 66.0 °F 30.9 °F 27% 29.81 in 10.0 mi NNW 5.8 mph - N/A   Mostly Cloudy
10:56 AM 69.1 °F 30.0 °F 23% 29.80 in 10.0 mi NNW 5.8 mph - N/A   Mostly Cloudy
11:56 AM 72.0 °F 28.9 °F 20% 29.78 in 10.0 mi Calm Calm - N/A   Scattered Clouds
12:56 PM 73.0 °F 28.9 °F 20% 29.76 in 10.0 mi WSW 5.8 mph - N/A   Scattered Clouds
1:56 PM 77.0 °F 28.0 °F 17% 29.74 in 10.0 mi WNW 18.4 mph 26.5 mph N/A   Scattered Clouds
2:56 PM 79.0 °F 28.0 °F 15% 29.72 in 10.0 mi NW 15.0 mph 24.2 mph N/A   Mostly Cloudy
3:56 PM 77.0 °F 28.9 °F 17% 29.70 in 10.0 mi NW 15.0 mph 26.5 mph N/A   Scattered Clouds
4:56 PM 77.0 °F 28.9 °F 17% 29.68 in 10.0 mi NW 11.5 mph - N/A   Scattered Clouds
5:56 PM 77.0 °F 30.0 °F 18% 29.67 in 10.0 mi WNW 21.9 mph 26.5 mph N/A   Scattered Clouds
6:56 PM 75.0 °F 27.0 °F 17% 29.67 in 10.0 mi NW 17.3 mph - N/A   Clear
7:56 PM 71.1 °F 28.0 °F 20% 29.69 in 10.0 mi WNW 18.4 mph 26.5 mph N/A   Scattered Clouds
8:56 PM 68.0 °F 26.1 °F 21% 29.71 in 10.0 mi WNW 17.3 mph 28.8 mph N/A   Clear
9:56 PM 64.9 °F 26.1 °F 23% 29.74 in 10.0 mi WNW 18.4 mph - N/A   Scattered Clouds
10:56 PM 62.1 °F 14.0 °F 15% 29.78 in 7.0 mi North 18.4 mph 24.2 mph N/A   Partly Cloudy
11:56 PM 57.0 °F 1.0 °F 10% 29.84 in 10.0 mi North 11.5 mph - N/A   Overcast